SL-3 R/B, 877

Orbit data source: Space-Track

SL-3 R/B, 877 is space debris in LEO originally from a launch on Fri, 28 Aug 1964 UTC launched from the Tyuratam Missile And Space Complex (TTMTR). Debris objects in space refer to the collection of defunct objects orbiting the Earth. Examples of debris include non-operational satellites, rocket bodies, and fragments generated from explosions, collisions, or faulty payload assembly.

Loading next visibility...
Identifier
877, 1964-053B
Orbit
LEO
Last TLE update
17 hours ago
Origin
Manufacturer
Progress
Mission
Spacecraft
Bus & Motor
BLOK-E, Unknown motor
Mass
1,440 kg wet, 1,440 kg dry
Launch date (UTC)
1964-08-28 (61 years ago)
Launch vehicle
Unknown
Launch site
Tyuratam Missile And Space Complex (TTMTR)
Object type
Payload
Rocket body
Debris
Shape & HBR
Cyl, 3.8 m
Radar Cross Section
10.414 m², Large (>1 m²)

Expand to show TLE details & history

TLE from 17 hours ago
0 SL-3 R/B
1   877U 64053B   25128.50829261  .00000342  00000-0  92520-4 0  9992
2   877  65.0753 145.6723 0050893  47.5567 312.9819 14.61056165222203
Epoch: 2025-05-08T12:11Z
Definitive object data (Epoch: 2025-05-08T12:11:56.481Z)
Latitude
-0.00004°
Longitude
96.10916°
Altitude
667.344 km
Speed
7.537 km/s
True Right ascension
09h 42m 41s
True Declination
0° 00' 00"
Sunlit
Object was in daylight at TLE epoch
Visualization TLE readout
Latitude
56.09847°
Longitude
137.5225°
Altitude
664.054 km
Speed
7.549 km/s
Apparent Right ascension
03h 08m 46s
Apparent Declination
56° 00' 15"
Sunlit
Object is in daylight
Visualization observer readout
Local Sidereal Time
13:04:04
Azimuth
342.936° N
Elevation
9.501°
Doppler factor
1
Orbital elements
Apogee altitude
724.278 km
Perigee altitude
652.351 km
Semi-major axis
7,066.452 km
Eccentricity
0.0050893
Inclination
65.0753°
RAAN
145.6723°
Arg. of periapsis
47.5567°
True anomaly
312.5534°
Mean anomaly
312.9819°
Eccentric anomaly
312.76784°
Mean motion
3.65377 °/min
BSTAR
0.00009252
Orbital period
98.53 mins
Loading maneuver chart data...
Loading SW <> Apogee altitude chart data...
Loading historical data...
Loading historical data...
Loading historical data...
Loading historical data...
Loading historical data...
Loading historical data...
Loading historical data...
Other satellites on launch #53 in the year 1964 (1964-08-28 UTC)

SL-3 R/B Visibility forecast

Observer location: undefined°, undefined°

Span
Click to sort rows by Start time (UTC) header in descending order
Start Az.
Max El. time (UTC)
Max El. Az.
Max El.
End time (UTC)
End Az.
4 mins2025-05-09 10:04:29.348Z15.336° NNE2025-05-09 10:06:29.348Z41.746° NE13.478°2025-05-09 10:08:29.348Z67.502° E
7 mins2025-05-09 11:45:29.348Z329.954° NNW2025-05-09 11:48:29.348Z70.018° E44.965°2025-05-09 11:52:29.348Z148.571° SSE
7 mins2025-05-10 02:07:29.348Z177.352° S2025-05-10 02:10:29.348Z109.79° ESE34.204°2025-05-10 02:14:29.348Z45.705° ENE
6 mins2025-05-10 03:49:29.348Z272.638° WNW2025-05-10 03:51:29.348Z304.937° NW21.228°2025-05-10 03:55:29.348Z5.315° NNE
|